Wind_Speed
18 17 19 26 15 30 20 10 8 7 5 5 6 7 7 6 4 1 2 5 6 6 7 8 8 8 11 13 15 16 17 16 13 18 18 18 18 20 21 19 20 19 23
17 14 18 19 20 24 17 9 9 8 7 6 7 8 7 4 1 2 4 4 5 7 7 9 12 13 13 16 17 14 16 19 19 15 20 21 22 23 23 21 19 19 20
9 10 5 11 19 14 13 11 10 9 10 10 8 5 3 1 1 2 3 4 6 9 11 12 14 16 16 17 14 16 18 22 21 19 19 22 24 24 26 22 20 20 18
9 8 6 6 10 14 14 12 13 13 12 8 6 3 2 3 4 4 5 7 10 13 13 14 15 19 13 12 13 18 21 19 20 20 21 22 24 23 20 17 18 19 19
11 9 8 8 8 10 13 13 11 9 8 5 6 2 4 5 7 5 7 10 12 16 15 17 20 13 13 15 11 14 17 20 21 22 23 23 23 20 19 21 19 22 18
14 14 13 12 10 5 7 9 8 6 3 4 2 5 6 8 6 7 11 10 12 17 19 18 20 20 14 10 7 12 17 16 17 18 20 20 23 24 24 21 19 18 11
16 14 13 16 18 18 13 8 4 1 2 3 5 8 10 10 8 12 11 11 14 18 17 16 14 10 10 3 9 15 18 10 14 16 17 20 24 24 25 25 23 19 17
22 17 14 15 9 7 7 6 6 6 5 7 7 11 11 11 9 10 11 15 17 22 12 11 10 13 9 5 9 15 17 15 13 13 17 19 21 22 20 22 26 23 20
15 9 7 7 11 12 11 9 6 1 3 6 11 8 7 5 6 8 11 14 21 12 10 13 16 12 4 6 12 16 18 20 13 16 18 20 21 19 23 21 22 22 22
6 6 7 5 2 6 6 4 2 2 5 5 7 8 9 6 3 9 12 14 19 14 13 9 7 6 8 13 14 16 19 21 20 23 23 23 19 18 17 15 18 20 21
5 8 5 5 5 6 4 4 3 2 5 7 10 8 10 3 2 7 10 11 14 16 16 13 9 5 12 16 15 13 17 23 27 26 22 21 19 17 17 13 16 22 20
7 7 6 6 8 9 5 3 3 4 10 10 6 6 11 9 8 10 10 11 12 13 14 12 13 18 16 15 16 15 20 22 20 20 18 19 16 15 18 17 19 20 22
12 13 11 8 8 6 4 4 9 11 11 9 13 13 9 6 5 7 8 11 14 18 14 18 15 15 16 19 14 19 20 20 22 20 18 18 19 22 16 15 17 21 17
13 9 8 6 4 6 8 7 10 10 7 11 11 9 10 8 10 12 14 16 19 15 14 12 14 14 15 14 16 17 19 18 19 19 19 22 24 26 18 16 20 19 16
11 7 2 4 6 7 7 4 7 5 4 2 7 8 5 5 7 8 11 12 18 16 23 17 24 21 21 22 21 18 16 16 18 19 20 21 22 21 22 21 19 21 13
2 4 4 10 8 5 4 6 4 3 2 4 7 6 6 4 4 8 11 12 15 19 13 17 15 14 15 16 17 20 21 24 22 15 17 20 18 27 22 23 20 18 15
6 5 6 6 2 4 6 4 4 5 6 5 4 4 3 2 2 10 14 18 15 12 13 15 15 17 19 17 20 19 19 22 23 18 19 20 15 24 21 20 19 17 18
3 5 3 3 2 3 4 3 8 7 7 7 6 6 2 1 4 7 12 19 14 13 15 12 12 13 15 17 20 21 21 21 24 22 23 21 21 24 20 19 17 13 10
8 3 5 4 7 5 9 12 9 8 7 13 6 5 4 4 6 6 9 11 17 16 16 15 14 14 16 15 17 22 23 27 25 24 24 21 23 21 21 17 9 9 12
9 7 2 6 9 3 6 5 5 4 7 8 5 4 5 5 7 5 4 10 12 17 17 16 16 15 13 14 18 19 21 28 26 25 25 26 25 19 18 17 18 17 17
9 4 4 8 5 6 4 6 7 10 9 9 8 3 7 5 8 8 7 7 11 12 16 17 17 17 16 15 18 19 16 29 24 23 26 19 23 21 20 18 17 17 16
5 2 5 6 6 8 7 6 8 8 10 14 13 9 9 7 5 8 9 10 10 11 14 16 18 17 16 17 17 19 19 26 26 24 27 18 18 15 15 18 19 19 20
6 5 3 4 7 5 6 8 11 13 12 12 11 11 13 12 11 11 11 9 10 13 13 14 14 18 17 17 16 17 18 24 28 21 21 18 15 15 16 17 17 19 18
9 9 9 5 9 11 18 13 11 10 11 13 11 10 10 11 12 13 17 18 15 15 12 13 13 14 16 16 16 15 17 24 27 19 17 14 9 13 13 13 13 12 12
12 11 10 10 11 10 9 10 11 10 11 12 13 15 12 12 12 13 16 15 15 15 15 13 13 14 14 14 16 16 18 22 24 18 13 14 6 7 8 5 3 0 3
13 12 11 10 10 10 10 9 9 10 9 11 13 13 12 13 14 14 14 14 13 12 13 13 15 16 14 14 17 15 18 21 24 16 8 11 7 6 6 6 2 5 4
Wind_Direction
134 144 136 133 216 239 260 248 246 216 198 188 161 149 148 141 145 138 289 296 298 306 301 294 301 300 298 300 303 295 292 290 301 306 316 302 321 300 282 279 285 283 283
174 190 213 240 234 208 236 200 186 171 174 158 149 139 144 147 194 293 290 326 311 307 302 305 305 305 311 290 287 318 306 300 296 299 292 298 292 288 287 271 269 273 278
230 231 179 173 177 174 172 169 177 161 142 140 143 150 165 165 260 282 299 320 308 297 294 293 299 301 292 292 308 310 314 310 301 293 295 290 296 294 290 280 271 263 269
164 135 145 171 159 163 152 152 151 146 137 146 134 98 8 332 285 276 300 296 298 301 309 304 293 290 299 298 302 303 293 301 295 284 277 284 278 274 275 294 301 299 297
148 153 153 144 141 148 145 146 142 135 135 134 84 357 327 308 284 229 294 299 300 302 305 291 283 282 281 281 293 295 302 299 297 299 296 298 297 299 298 301 293 288 303
117 120 124 118 113 115 114 121 109 96 63 20 8 289 290 278 291 281 278 283 289 291 297 298 295 294 270 272 281 308 300 286 292 294 295 296 300 299 296 291 302 307 290
96 73 73 80 74 50 40 43 42 32 308 302 287 282 282 276 267 279 277 280 289 292 297 301 308 288 307 311 321 308 293 274 279 281 289 295 298 296 300 302 290 280 272
78 77 73 75 84 133 179 177 212 207 242 265 280 289 302 301 283 278 287 291 288 285 278 299 296 296 274 288 320 306 304 304 302 278 287 298 294 290 296 289 284 288 280
108 123 141 165 165 188 190 193 192 210 298 301 278 298 296 298 257 304 309 306 298 313 305 290 271 271 260 316 317 305 304 302 310 327 306 307 314 302 281 283 279 264 268
103 151 186 189 97 88 82 76 65 358 303 332 330 325 304 304 309 335 329 311 309 326 319 335 310 272 308 305 305 303 298 303 316 311 304 301 296 288 293 259 269 276 279
133 148 128 99 92 76 78 63 38 11 336 311 305 325 344 355 43 1 346 336 336 323 322 322 324 288 309 301 302 298 296 297 299 296 294 301 302 299 288 283 274 267 271
124 100 86 68 40 73 64 44 343 306 315 330 22 7 61 76 53 30 24 11 359 328 313 318 326 315 315 312 299 289 294 306 305 305 304 305 305 320 315 311 314 296 273
95 87 84 80 74 50 350 339 323 352 26 10 32 68 55 64 41 5 359 7 350 328 323 314 304 296 301 290 331 359 329 329 344 338 332 321 324 315 308 316 317 303 285
106 106 109 86 22 5 328 359 20 28 15 36 42 74 81 49 26 13 1 352 345 348 340 322 313 312 336 27 6 358 356 347 344 329 328 331 328 318 319 328 321 303 298
113 109 55 359 352 359 37 9 13 46 356 314 101 127 122 79 46 15 357 358 353 342 331 11 19 8 5 1 353 350 343 339 338 335 327 334 326 327 324 323 315 312 284
27 1 351 337 9 15 335 124 84 64 68 70 66 82 85 79 35 2 345 334 331 348 8 31 19 5 1 353 341 345 354 351 345 347 336 324 334 336 319 319 308 302 283
351 325 351 19 3 343 5 12 107 87 136 132 114 123 110 118 12 358 345 329 304 345 41 24 11 3 357 357 346 352 349 348 345 347 334 322 330 336 310 301 296 290 284
18 11 11 46 54 19 40 13 135 174 182 177 169 164 194 304 345 351 345 347 9 23 31 17 13 3 355 351 356 1 354 3 349 350 343 342 348 327 312 301 292 283 277
55 31 81 112 60 28 41 41 29 32 56 149 175 199 233 273 293 288 309 334 356 12 17 9 8 7 358 357 352 352 7 354 355 350 349 358 351 342 336 350 57 90 94
56 92 72 15 78 38 64 35 348 4 34 25 356 343 304 241 238 302 295 11 0 358 14 1 3 7 4 355 356 358 6 359 351 350 354 10 4 15 18 43 58 67 77
110 100 68 52 32 15 25 355 356 356 359 348 333 334 3 351 332 16 355 12 9 1 355 354 356 7 6 358 356 358 5 0 354 346 344 11 21 21 43 68 72 79 83
148 106 41 56 18 4 8 357 359 355 26 34 36 48 25 14 18 21 18 358 358 2 356 348 349 2 10 358 352 357 3 355 354 344 340 358 25 43 60 52 65 74 87
62 29 75 44 24 1 351 26 23 69 48 47 43 29 10 10 1 358 350 2 354 357 1 2 349 347 357 355 353 357 2 353 351 340 340 353 30 50 52 68 71 75 82
39 69 56 30 33 46 65 61 61 46 28 36 28 9 10 7 7 9 8 13 9 5 2 357 352 349 341 349 358 354 353 352 352 344 341 355 41 61 71 73 77 95 104
49 46 53 53 60 59 57 54 48 39 28 26 19 29 21 13 15 18 18 9 3 357 355 351 354 349 348 360 357 353 352 357 358 353 350 353 17 100 100 73 68 165 195
59 57 51 49 42 46 56 53 54 47 38 30 30 30 18 13 11 5 360 0 356 351 353 356 358 353 356 356 351 354 359 1 2 5 12 351 11 42 86 94 40 342 122
Height
768 772 769 761 778 786 788 787 788 790 792 793 795 796 797 800 802 803 804 805 806 807 809 809 808 807 806 805 803 800 796 793 790 787 786 787 786 787 786 784 782 782 781
768 769 767 766 769 778 785 785 790 790 791 793 798 798 799 800 803 804 804 806 806 808 808 807 807 805 804 803 800 798 796 794 793 789 789 786 784 781 778 777 776 775 775
768 768 766 769 772 776 780 785 788 790 792 794 797 799 799 800 802 805 806 806 807 807 806 806 806 804 802 800 798 796 794 793 789 785 782 782 779 775 773 771 769 768 768
767 767 769 772 774 777 779 783 788 790 792 797 795 797 801 802 804 806 807 807 808 806 804 804 802 801 798 797 796 795 793 789 785 783 779 776 772 768 768 767 765 764 763
763 769 771 774 778 781 783 786 790 793 794 795 792 799 802 802 803 804 807 808 807 806 804 801 799 797 795 794 793 794 793 788 783 779 774 770 767 764 764 763 762 761 758
767 769 773 774 780 789 790 792 792 791 796 797 797 801 802 803 803 804 805 806 806 802 799 798 797 794 792 790 791 791 790 787 784 780 774 770 768 766 762 762 761 758 757
771 778 782 780 784 793 796 797 798 799 800 800 800 802 802 803 803 804 804 804 802 799 795 795 794 793 792 790 789 789 785 782 780 779 773 770 766 765 762 761 759 755 754
777 785 788 787 790 793 798 800 803 801 802 802 801 802 803 804 803 804 804 801 799 794 793 792 791 791 790 789 788 786 781 777 777 774 770 765 762 760 760 759 756 752 750
780 787 790 792 792 794 795 798 800 800 802 802 803 803 803 802 802 803 803 800 796 792 790 788 787 788 785 786 786 784 779 773 769 767 763 759 757 754 755 755 750 747 742
789 791 793 793 792 793 795 798 800 801 802 803 802 803 803 802 802 802 801 800 794 790 788 786 786 786 784 784 783 779 777 771 766 764 760 755 753 751 750 748 747 743 738
793 793 795 795 795 796 798 799 801 802 803 802 800 800 799 802 802 802 800 798 795 792 788 786 785 785 783 780 778 775 773 769 764 760 755 752 750 747 745 744 741 740 737
791 793 796 797 795 797 801 802 801 801 801 801 800 800 801 802 804 802 800 798 796 794 788 785 784 782 779 775 773 771 767 764 760 755 752 749 745 743 741 738 737 734 732
792 796 796 799 799 801 802 801 799 799 801 802 800 802 803 804 803 801 800 799 796 793 788 784 781 777 773 772 771 768 765 763 758 753 750 745 743 740 738 736 732 729 726
794 797 798 800 801 801 800 799 800 801 801 802 806 805 805 806 804 804 802 799 796 788 786 780 776 774 775 775 771 768 765 762 759 755 751 747 743 739 736 733 730 726 723
798 799 800 799 799 799 800 801 800 800 803 805 801 802 803 803 805 805 804 800 794 790 785 781 779 778 777 775 771 768 764 761 757 754 750 747 743 738 733 731 727 723 720
799 798 799 797 795 798 798 799 802 803 805 806 805 803 804 806 806 804 801 799 794 789 788 785 787 786 783 779 774 768 765 761 757 754 750 746 742 739 733 728 724 720 716
800 800 796 797 797 798 797 798 803 805 805 806 805 806 806 806 805 803 800 797 793 789 789 787 788 785 781 777 772 769 766 762 758 753 748 744 740 736 729 724 719 716 711
801 800 798 798 799 799 798 798 800 801 802 805 805 805 806 805 805 803 800 794 789 787 787 787 788 785 782 778 774 771 767 764 759 752 748 743 738 731 724 718 714 711 710
801 803 800 800 802 802 801 801 801 801 801 803 805 805 804 804 803 802 800 797 792 787 787 786 784 784 782 781 777 773 770 766 760 754 749 743 736 729 721 713 711 710 711
805 807 803 802 803 804 802 804 802 803 803 803 803 804 803 803 802 800 799 797 794 791 789 786 784 783 783 781 778 775 772 769 763 757 751 745 738 732 726 722 718 718 718
808 808 806 805 806 804 804 803 803 805 805 804 803 803 803 801 800 799 797 797 796 795 792 789 786 784 783 782 780 777 774 770 766 760 753 748 743 737 733 731 729 727 727
808 808 807 807 807 806 806 806 807 806 805 805 804 805 804 802 799 799 799 798 797 796 795 792 789 786 785 784 782 778 776 772 767 761 755 751 747 744 741 738 737 736 736
808 807 808 807 809 809 808 807 808 809 809 808 808 808 806 805 803 802 800 799 799 798 797 796 794 790 787 786 783 780 778 774 769 764 759 754 751 749 747 745 744 744 744
806 808 810 809 809 810 811 812 812 811 811 811 811 810 809 808 807 806 804 802 801 800 799 797 796 794 791 787 785 783 780 775 770 765 761 758 755 753 752 751 750 750 750
811 811 811 811 812 813 813 814 815 815 815 815 814 813 812 811 810 809 807 806 804 803 801 799 797 795 792 789 787 784 780 775 770 765 762 760 756 755 755 754 753 753 753
816 816 816 815 814 813 814 815 817 818 818 817 816 816 815 814 813 812 810 809 807 805 803 801 799 796 793 791 787 784 780 776 771 766 763 762 759 758 757 757 756 754 754